sat.trackr.live / text

‹ back to catalog

STARLINK-36752

NORAD 67724 · 2026-026D

PAYLOAD ACTIVE UNKNOWN

§ Identity

Operator
Country
US
Launch date
2026-02-11
Launch site
AFWTR
Launch vehicle
Mass (kg)
RCS (m²)

Purposes: comms

External: N2YO · Heavens-Above · Gunter

§ Orbital elements

Epoch: 2026-05-25T02:31:01.238880Z

Period
93.90 min
Inclination
97.2862°
Eccentricity
0.0000893
Mean motion
15.33521916 rev/d
Perigee alt
464.7 km
Apogee alt
465.9 km
Semi-major
6,843.5 km
B*
1.5748e-3
RAAN
198.5835°
Arg perigee
127.3172°
Mean anomaly
232.8152°
Rev number
1,583

§ Raw data

STARLINK-367521 67724U 26026D   26145.10487545  .00051236  00000+0  15748-2 0  99972 67724  97.2862 198.5835 0000893 127.3172 232.8152 15.33521916 15830

JSON: /api/v1/satellites/67724 · /tle

For live sub-satellite position, see the globe view (requires WebGL).

§ Visibility from observer

Set your observer location to see the next 7 days of passes ≥ 10°. The values pass through the URL so the page stays shareable.

No JS? Fill the form by hand. The geolocation button needs JavaScript.